Find Starlink 33566

NORAD ID: 62100 Int'l Des: 2024-220 Owner: SPXS Country: US Constellation: starlink operational
LEOCIRCULAR

Live Position

Loading 3D Globe...

About Starlink 33566

Description loading...

Upcoming Passes

Passes for default location (London). Set your location on the main map for personalized predictions.

Altitude History

Loading altitude history...

Two-Line Element Set

1 62100U 24220N 26127.29390224 .00011690 00000-0 43373-3 0 9998
2 62100 43.0012 219.8704 0001528 257.1597 102.9084 15.27573287 82320
Epoch: May 7, 2026 • Age: 7 hours

Current Status

Altitude 484.0 km
Velocity 7.63 km/s
Sub-Earth Point 28.77°N, 71.82°W
Launch Date Nov 25, 2024
Age 1.4 years
Type internet

Technical Details

Classification Payload
Mass 530.00 kg
Dry Mass 500.00 kg
Total Mass 530.00 kg
Length 0.30 m
Diameter 4.10 m
Span 29.00 m
Shape Box + pan
Manufacturer SPXS
Bus Type Starlink V2MO
Phase Status In Orbit
Owner/State SPXS/US

Most Searched